This is the latest recevied weather packets stored in our database for station/object N9BLE. If no packets are shown the sender has not sent any weather packets the latest 10 day(s).
| Time | Temp. | Humidity | Pressure | Rain* | Wind** | Luminosity | Snow |
|---|---|---|---|---|---|---|---|
| 1777752658 | 12.78° C | 43% | 1021.4 hPa | 0 mm | - | 671 W/m² | - |
| 1777752354 | 13.33° C | 39% | 1021.4 hPa | 0 mm | - | 689 W/m² | - |
| 1777752052 | 12.22° C | 40% | 1021.6 hPa | 0 mm | - | 530 W/m² | - |
| 1777751750 | 11.67° C | 40% | 1021.8 hPa | 0 mm | - | 195 W/m² | - |
| 1777751445 | 11.67° C | 41% | 1021.6 hPa | 0 mm | - | 145 W/m² | - |
| 1777751142 | 11.67° C | 40% | 1021.7 hPa | 0 mm | - | 208 W/m² | - |
| 1777750838 | 12.22° C | 38% | 1021.8 hPa | 0 mm | - | 189 W/m² | - |
| 1777750536 | 13.33° C | 38% | 1021.9 hPa | 0 mm | - | 152 W/m² | - |
| 1777750233 | 13.33° C | 35% | 1022 hPa | 0 mm | - | 806 W/m² | - |
| 1777749928 | 13.89° C | 40% | 1022 hPa | 0 mm | - | 720 W/m² | - |
| 1777749626 | 13.33° C | 38% | 1021.9 hPa | 0 mm | - | 784 W/m² | - |
| 1777749322 | 12.22° C | 39% | 1022.2 hPa | 0 mm | - | 240 W/m² | - |
| 1777749020 | 12.78° C | 36% | 1022 hPa | 0 mm | - | 279 W/m² | - |
| 1777748718 | 12.78° C | 38% | 1022.1 hPa | 0 mm | - | 489 W/m² | - |
| 1777748415 | 13.33° C | 43% | 1022.4 hPa | 0 mm | - | 574 W/m² | - |
| 1777748110 | 12.22° C | 43% | 1022.3 hPa | 0 mm | - | 460 W/m² | - |
| 1777747807 | 12.22° C | 44% | 1022.5 hPa | 0 mm | - | 273 W/m² | - |
| 1777747502 | 12.22° C | 40% | 1022.5 hPa | 0 mm | - | 330 W/m² | - |
| 1777747199 | 13.33° C | 42% | 1022.6 hPa | 0 mm | - | 902 W/m² | - |
| 1777746895 | 12.22° C | 45% | 1022.8 hPa | 0 mm | - | 903 W/m² | - |
| 1777746590 | 12.22° C | 43% | 1022.8 hPa | 0 mm | - | 685 W/m² | - |
| 1777746286 | 11.67° C | 45% | 1022.8 hPa | 0 mm | - | 414 W/m² | - |
| 1777745982 | 11.11° C | 47% | 1023 hPa | 0 mm | - | 455 W/m² | - |
| 1777745680 | 10.56° C | 50% | 1022.9 hPa | 0 mm | - | 249 W/m² | - |
| 1777745379 | 10.56° C | 49% | 1023 hPa | 0 mm | - | 162 W/m² | - |
* Rain latest hour (hover to see other rain measurements)
** Current wind speed in m/s (hover to see current wind gust speed)